Theta_e
305 305 305 305 305 305 305 305 304 304 304 304 304 305 305 306 307 307 306 312 302 296 299 300 298 293 292 291 288 295 295 297 295 288 288 288 288 290 290 291 291 289 287 291 292 291 289 306 307 302 305 310 311 312
306 306 306 306 305 305 305 305 305 305 305 304 304 305 305 306 306 306 303 311 309 299 299 305 306 304 299 297 293 294 293 293 295 290 293 290 287 290 289 286 296 290 294 295 297 294 302 304 305 309 310 309 312 313
306 307 306 306 306 305 305 305 305 305 305 305 305 305 306 306 306 305 305 306 303 300 301 301 300 304 305 302 304 293 296 296 295 298 294 292 288 292 288 288 290 293 300 297 299 298 301 305 307 308 310 310 312 315
306 306 306 306 306 306 305 305 305 305 305 305 306 305 306 306 306 305 303 308 304 300 293 300 307 302 308 306 303 300 298 299 297 300 297 295 290 296 292 291 290 293 297 297 296 297 301 305 307 307 308 311 310 313
305 305 305 306 306 306 305 305 305 305 305 305 306 306 306 305 305 305 306 309 308 301 295 299 306 307 309 308 304 301 298 295 295 295 295 295 299 297 298 298 293 298 295 293 291 298 299 300 306 308 307 309 309 310
305 305 305 305 305 305 305 305 305 305 305 306 306 305 306 305 305 305 301 310 309 306 296 292 306 305 305 307 307 301 299 298 298 298 296 298 303 299 295 294 297 298 302 302 299 303 302 305 307 308 309 308 309 310
304 305 305 305 305 305 305 305 305 305 305 305 305 305 305 307 308 306 303 308 309 307 298 293 298 304 307 305 305 304 305 303 301 299 298 299 298 300 295 291 296 299 301 302 304 304 302 303 302 306 309 310 310 311
304 304 304 304 305 305 305 305 305 305 305 305 305 305 306 307 307 304 309 307 309 303 301 292 296 299 307 300 298 304 302 302 299 299 301 297 299 298 292 297 298 298 299 299 301 303 304 305 306 307 309 309 309 310
302 303 304 304 304 305 305 305 305 305 305 304 304 305 308 307 304 305 306 305 308 303 294 294 292 292 305 301 301 301 301 296 301 297 299 298 298 292 295 296 297 298 297 297 301 303 303 304 305 306 307 308 308 309
300 301 302 302 304 304 304 304 305 305 304 304 306 306 303 303 305 306 303 298 298 300 300 296 302 297 303 302 296 297 300 297 293 296 300 297 297 299 301 301 301 300 299 299 297 297 300 301 304 305 305 308 309 309
299 299 299 300 302 303 304 304 304 304 304 308 304 303 305 305 305 303 295 294 296 293 299 301 301 298 305 296 295 298 294 297 292 295 296 295 296 298 302 302 303 302 302 303 303 303 305 306 304 306 306 308 309 309
298 299 300 300 302 302 304 304 303 304 302 301 299 301 302 298 297 294 295 299 297 296 301 299 300 303 303 306 296 296 291 295 289 301 295 293 298 300 302 302 303 303 302 302 304 304 306 305 305 305 307 309 309 311
298 298 299 300 302 303 303 302 303 302 303 304 297 293 294 298 291 291 289 294 295 299 301 302 298 302 302 301 296 293 289 290 298 293 293 297 300 302 303 303 303 305 303 303 303 304 305 305 306 308 309 310 311 312
297 298 298 299 301 303 302 302 302 302 303 298 296 290 293 293 295 298 298 297 301 301 300 302 299 299 301 296 295 288 294 296 288 287 289 298 301 302 303 304 303 304 304 304 302 306 306 306 307 309 310 311 312 311
296 297 298 299 301 301 302 302 302 303 302 297 297 288 294 299 301 302 302 302 303 303 301 300 300 301 297 293 294 291 288 286 289 291 299 302 303 304 304 304 303 304 304 304 304 304 304 305 305 308 310 311 313 313
296 297 300 301 301 301 301 303 304 304 302 299 298 297 302 299 299 300 300 300 303 303 305 301 296 294 292 296 290 288 287 286 290 295 302 304 304 304 305 305 304 305 305 306 305 305 306 306 305 307 308 308 311 311
295 298 298 299 299 299 301 300 301 296 294 295 296 301 301 301 301 301 301 301 305 301 297 296 291 290 299 293 290 294 291 293 299 303 305 306 304 304 305 305 304 305 305 305 304 305 306 308 307 306 303 305 307 309
296 299 299 298 299 301 301 298 298 296 292 297 297 300 303 305 303 303 304 304 301 300 299 295 298 293 291 288 292 297 302 302 303 304 305 306 307 306 305 305 305 305 306 305 306 306 306 305 304 305 306 307 305 304
295 296 296 298 298 296 294 297 299 293 297 300 301 303 303 304 306 306 305 305 305 304 300 298 294 293 294 297 297 299 301 302 300 301 304 306 307 306 305 304 304 304 305 306 307 305 306 306 307 306 306 306 305 304
296 296 297 298 299 294 292 295 301 296 294 299 301 300 302 302 304 305 305 304 302 301 297 295 296 298 298 301 303 303 303 304 303 299 301 304 305 305 304 304 304 306 305 306 306 301 306 306 307 307 307 305 305 303
295 298 299 299 297 296 293 295 294 297 298 296 299 300 299 303 302 302 301 304 300 298 296 300 300 302 305 305 305 305 304 304 302 302 301 301 303 305 303 305 306 304 303 305 303 303 302 305 307 307 307 304 304 303
296 297 294 296 293 294 292 297 295 298 296 296 295 296 295 295 297 299 303 300 298 300 301 301 302 303 303 303 303 305 305 305 306 302 298 300 300 301 302 304 304 302 302 302 302 302 303 306 306 307 306 305 303 304
297 295 291 292 288 287 287 297 290 293 290 292 296 293 294 296 299 305 297 300 301 304 303 303 304 305 304 305 304 305 306 304 303 304 303 304 304 305 303 303 305 303 301 303 304 304 305 296 302 304 304 305 304 303
296 290 287 287 285 283 291 288 291 292 292 291 290 290 293 296 300 296 294 297 301 303 302 303 303 302 303 304 302 302 304 304 303 304 304 304 303 304 305 304 305 305 304 304 303 304 307 305 298 304 304 301 302 300
284 285 286 282 288 285 285 286 288 289 287 290 288 289 292 296 292 292 292 296 299 301 303 304 302 302 301 301 303 303 305 304 303 302 304 304 303 303 302 303 303 304 305 303 302 304 304 303 303 303 303 302 300 298
278 285 283 285 285 285 285 284 286 287 288 287 289 293 295 293 288 289 293 296 298 300 302 302 301 300 301 303 302 303 303 307 305 303 304 305 303 302 301 300 300 302 305 305 303 302 301 301 302 301 301 299 291 297
277 281 287 291 289 289 287 289 290 289 286 286 290 291 291 286 286 293 298 302 299 302 305 304 303 301 301 302 303 304 306 307 305 305 306 305 304 304 302 300 299 302 305 304 303 302 301 299 300 301 300 300 298 296
283 284 281 285 286 288 284 286 285 284 287 293 292 287 287 288 290 298 299 302 303 305 303 302 302 304 303 304 304 303 304 305 307 307 304 305 304 303 303 304 305 288 303 302 303 304 303 302 301 300 299 298 298 296
283 286 285 283 284 285 286 285 286 289 291 289 287 286 288 292 294 296 300 301 300 300 299 298 299 302 303 305 306 304 305 305 301 300 299 298 299 300 304 304 303 304 303 300 284 291 297 299 299 300 299 299 299 297
283 286 283 284 282 282 286 289 288 291 292 292 292 292 292 294 297 300 299 299 298 298 298 298 299 299 299 301 302 303 304 305 304 301 298 298 298 302 303 303 303 303 303 303 301 298 285 294 291 299 297 297 297 295
287 286 284 284 284 287 288 291 292 292 292 291 293 291 291 293 294 290 289 291 297 298 298 298 299 300 299 299 298 300 299 302 303 303 304 303 303 303 303 303 303 303 301 301 301 300 298 298 297 296 295 293 292 292
286 284 284 282 285 289 290 289 289 289 290 290 290 292 292 291 289 286 287 288 289 288 286 288 291 293 298 299 299 298 292 300 299 301 302 302 302 302 302 302 302 301 301 299 299 298 297 296 296 294 293 291 291 290
286 286 286 285 285 285 288 288 287 287 288 289 289 290 290 287 282 286 290 289 287 287 287 287 288 288 289 292 294 293 292 293 287 284 285 285 284 289 299 301 300 299 298 298 296 295 294 294 293 292 291 290 289 288
Wind_Speed
16 18 18 19 19 19 20 20 21 21 22 21 20 20 18 16 15 9 7 9 6 5 14 11 5 5 3 3 4 11 9 3 4 5 5 7 6 6 6 2 6 5 4 4 5 3 1 16 3 4 7 5 8 7
16 17 18 18 18 19 20 20 21 21 21 22 21 19 19 16 14 10 9 4 5 5 12 18 18 9 8 14 4 4 6 8 4 3 3 3 3 4 5 1 6 3 4 6 7 5 7 8 13 11 10 8 11 9
17 18 18 18 18 18 20 22 23 23 22 22 22 21 20 17 13 10 9 3 3 5 10 8 7 7 8 8 7 4 2 3 2 3 4 2 5 2 4 3 5 5 8 3 7 12 5 10 11 12 10 9 10 10
17 18 18 19 18 17 19 19 21 24 25 22 21 22 21 17 13 10 8 6 4 4 4 0 8 5 9 12 12 7 7 4 7 9 4 3 4 3 3 2 3 4 11 10 4 8 4 13 10 12 13 11 13 14
18 18 18 19 18 18 18 19 21 24 26 25 24 23 22 19 14 10 8 8 8 4 5 9 13 5 6 12 10 10 8 4 3 4 4 4 2 5 4 1 3 1 5 4 3 10 13 12 13 11 11 11 14 15
17 18 18 19 18 18 19 19 20 24 27 26 26 26 24 17 5 5 6 8 8 6 3 5 7 5 8 5 7 10 8 5 4 5 4 4 8 5 5 1 14 18 16 11 10 11 15 15 16 12 10 12 13 14
17 18 18 19 19 18 19 19 20 23 27 27 25 25 22 7 7 4 8 4 7 5 3 5 4 7 2 6 4 6 10 4 5 3 3 4 2 6 5 5 15 16 17 17 16 15 15 10 11 14 14 13 13 12
15 16 17 18 19 18 19 19 20 22 25 28 25 22 10 4 8 5 5 1 5 4 2 3 5 1 2 1 3 3 4 4 3 4 1 4 6 4 1 9 12 12 13 13 12 16 16 16 16 16 14 11 13 10
15 16 17 17 18 18 18 18 20 22 25 29 22 8 5 5 1 4 6 4 4 5 2 3 3 3 2 1 3 3 4 3 4 1 1 2 2 3 8 14 12 14 13 14 16 13 13 15 15 15 12 10 11 10
17 18 18 18 17 17 17 17 19 22 27 29 11 8 5 3 2 6 3 3 5 4 4 5 3 3 2 1 2 4 5 3 4 4 4 4 2 3 5 7 9 11 14 16 14 12 13 11 11 12 12 10 10 10
17 18 17 18 18 18 16 17 17 20 18 6 5 3 7 6 4 4 3 4 4 5 6 5 5 6 4 3 2 1 2 5 3 3 3 2 3 8 12 11 6 5 14 14 12 13 14 16 11 12 10 13 10 9
18 19 18 18 17 17 16 16 12 8 6 8 8 7 5 3 4 6 6 6 6 4 10 6 2 2 3 2 2 2 2 5 2 2 3 1 4 10 12 14 14 10 15 14 15 11 12 10 10 8 11 10 7 8
19 20 20 20 20 17 15 9 12 12 17 2 3 3 4 5 4 7 6 5 4 6 5 4 5 3 4 3 2 1 3 3 6 3 3 3 6 9 11 13 13 13 13 13 16 8 7 4 9 10 6 5 6 6
19 21 21 21 19 12 4 11 14 11 7 5 4 5 7 7 6 6 6 6 3 3 5 3 4 5 4 4 2 3 3 1 3 2 3 4 7 9 10 12 14 16 12 16 17 13 9 8 10 10 10 9 6 5
19 22 21 16 6 11 14 16 15 7 5 6 5 7 8 9 7 4 5 4 3 4 4 5 5 3 3 3 2 2 3 3 3 3 2 3 6 7 9 11 14 15 13 13 14 15 15 15 13 11 11 11 14 11
21 24 4 11 11 16 19 16 10 6 4 6 8 8 9 6 9 8 7 6 6 4 2 5 5 3 5 3 4 4 3 4 3 3 5 4 3 6 7 9 11 12 12 13 10 13 13 13 13 13 14 13 12 13
20 3 18 17 19 22 19 4 4 5 6 7 8 9 12 11 8 8 7 4 4 6 7 4 4 3 2 4 2 3 4 3 6 3 3 3 4 4 6 7 8 10 10 9 5 7 12 13 13 14 14 13 10 12
12 10 15 20 18 11 3 5 5 6 9 10 10 9 11 9 8 8 7 5 6 7 8 8 4 6 4 4 3 6 7 7 4 3 1 1 1 3 5 6 7 8 8 8 10 7 6 11 13 11 14 14 12 14
15 16 22 21 13 5 5 5 5 7 9 9 9 10 10 8 7 9 8 7 6 7 7 4 6 8 9 9 9 6 5 4 3 4 3 3 2 2 4 5 5 5 5 6 8 7 4 8 10 8 10 11 11 11
20 19 20 14 5 3 6 6 4 7 6 6 7 9 9 9 8 8 8 8 8 8 9 8 12 10 10 8 5 5 5 4 5 4 6 2 4 5 3 5 5 7 6 8 6 7 8 9 7 6 8 9 11 12
17 5 6 6 4 6 6 6 6 7 7 7 7 7 7 8 8 9 9 8 9 10 11 11 11 11 11 10 9 6 4 6 5 5 2 8 4 3 3 3 3 5 5 3 5 6 7 9 8 7 8 9 7 9
11 4 6 6 5 6 7 8 8 6 7 10 12 11 10 10 10 10 10 11 11 9 11 11 11 10 9 12 9 11 8 5 8 6 3 4 6 4 6 2 3 5 6 5 4 5 6 8 8 8 9 8 9 10
8 5 6 7 7 6 8 9 8 8 8 5 8 8 7 8 8 1 5 6 7 10 11 8 6 7 8 11 9 11 11 10 7 7 6 5 3 1 1 3 1 4 5 5 5 6 7 4 5 6 5 7 8 9
3 5 5 6 8 6 6 5 4 6 7 10 12 17 14 9 5 5 8 8 8 6 5 4 5 8 8 9 9 7 8 8 7 7 6 6 4 4 3 2 1 2 3 5 6 6 5 6 5 6 8 7 7 9
3 6 6 9 6 6 8 14 16 13 16 14 16 14 9 6 5 9 11 6 5 2 2 2 6 8 8 7 7 8 10 8 9 7 7 5 7 7 4 4 4 3 3 5 5 7 5 6 4 5 6 9 8 8
8 8 10 7 8 11 10 15 16 17 16 18 17 8 8 8 5 7 6 3 4 3 3 3 4 5 7 4 4 6 4 11 6 5 8 8 6 4 3 1 4 7 3 4 5 7 7 3 3 4 7 8 8 8
8 10 8 11 10 9 9 9 11 10 12 5 6 13 9 5 6 2 4 3 6 3 1 3 3 5 6 8 6 5 8 10 6 9 3 5 7 4 3 5 5 6 4 5 5 5 5 3 5 6 6 7 8 7
11 9 17 15 15 11 16 14 16 7 6 5 4 4 4 2 5 5 2 3 4 1 4 5 6 3 5 8 8 6 5 5 8 10 7 5 6 5 6 7 8 7 8 7 6 4 4 5 5 5 5 6 7 7
12 12 14 18 17 13 15 16 15 14 13 11 7 4 5 2 9 4 5 5 7 7 6 6 6 6 7 5 8 3 6 10 11 13 15 10 8 7 7 8 7 6 6 6 8 8 8 6 6 5 5 5 6 8
18 13 16 18 18 18 14 13 12 12 12 11 9 11 10 7 6 8 8 9 8 7 7 7 7 7 8 5 6 5 5 6 9 10 12 11 11 10 8 8 8 7 7 6 8 8 3 5 5 4 4 5 5 4
11 12 15 16 18 13 12 11 10 10 12 13 12 11 10 10 6 8 9 8 9 9 8 9 9 7 7 4 6 7 5 4 4 4 2 7 6 6 7 6 5 3 5 3 2 3 6 3 4 5 5 6 6 4
6 11 13 15 11 11 12 10 9 10 9 10 10 7 10 11 5 3 6 7 7 7 6 6 8 8 9 6 7 6 6 8 8 8 9 9 8 6 4 3 3 4 4 3 3 3 3 5 3 4 5 5 5 7
8 9 10 8 7 9 9 7 6 7 8 9 11 8 3 1 6 5 4 6 5 6 5 4 4 5 10 12 9 8 10 10 10 9 11 14 12 9 2 3 4 4 4 4 4 3 4 5 4 5 6 6 6 7
Wind_Direction
303 304 306 309 312 313 314 316 317 318 320 324 327 326 323 317 312 298 280 184 221 254 297 298 308 269 242 233 268 317 308 0 311 334 325 1 325 3 317 321 313 185 232 231 234 255 124 341 18 8 46 60 32 20
299 302 302 305 309 310 312 314 314 316 317 318 324 325 323 317 306 304 270 189 202 246 282 301 286 262 223 248 266 265 301 316 316 319 328 331 300 301 307 316 311 266 343 310 1 80 191 30 61 42 22 14 22 4
295 299 303 303 305 309 313 315 314 316 316 317 319 320 319 316 304 275 278 160 198 270 282 234 228 187 182 211 240 264 253 303 274 273 301 253 279 262 324 30 289 202 295 266 306 355 339 64 33 26 12 2 355 343
293 294 298 299 301 304 306 309 311 314 316 317 316 316 317 317 306 273 248 237 215 302 283 234 103 189 206 183 201 208 253 274 310 279 282 294 281 230 303 250 291 325 316 337 63 334 55 21 3 352 351 355 352 340
293 293 296 298 299 301 304 305 308 314 316 318 318 317 317 313 296 259 248 245 230 263 308 318 306 207 168 179 205 214 225 239 259 263 246 266 247 305 183 285 20 28 342 15 315 325 322 327 325 320 330 341 338 336
294 296 296 297 300 303 304 304 309 313 315 317 320 319 317 310 259 196 221 200 201 190 270 292 355 205 176 158 181 188 215 222 250 306 309 313 328 323 302 88 12 351 351 345 314 312 303 304 310 328 322 325 324 319
297 299 300 302 300 298 300 303 311 312 315 314 318 318 316 296 199 285 9 28 126 149 232 274 259 193 142 167 179 190 205 232 261 240 277 272 325 320 328 17 337 340 333 325 312 296 293 300 317 317 309 310 304 306
301 306 307 307 305 301 299 302 308 311 311 311 315 316 308 110 257 231 102 175 170 242 241 275 278 10 260 310 218 214 213 196 212 274 330 341 304 337 324 341 324 314 317 303 313 319 300 295 291 284 289 293 298 300
313 313 312 312 308 305 307 307 310 313 309 306 313 297 228 236 336 34 97 155 239 279 261 235 274 277 237 72 303 232 221 245 146 338 271 240 280 8 316 308 344 346 325 312 311 302 287 288 288 280 277 281 289 306
318 319 318 318 318 317 314 315 315 316 309 301 285 207 163 35 104 152 195 199 210 217 228 254 285 285 261 283 298 313 280 294 182 206 138 238 262 281 329 346 327 327 313 307 306 304 308 285 295 310 306 294 291 295
317 316 316 314 316 314 317 316 320 319 293 316 333 334 7 122 240 209 243 230 178 221 210 235 278 315 113 305 240 256 308 283 278 151 255 218 30 10 20 351 19 349 319 317 298 282 283 283 272 276 290 287 286 291
313 315 316 315 310 310 317 320 326 321 333 314 302 302 312 260 220 225 213 196 213 256 164 248 57 254 81 233 226 244 245 283 259 20 260 332 23 2 4 0 15 34 336 337 322 304 275 275 287 275 267 273 290 297
319 313 315 320 319 317 319 332 326 312 292 167 197 230 224 225 242 220 211 217 236 181 192 205 215 159 148 215 245 276 240 254 324 275 288 59 10 19 3 356 8 42 344 349 346 358 25 332 266 265 265 235 239 272
324 314 313 311 315 336 318 313 331 323 275 249 222 244 228 208 230 226 223 260 45 305 263 306 307 146 165 218 176 247 237 228 266 263 247 24 4 5 4 -0 1 24 6 11 5 6 38 7 345 8 11 329 315 338
322 315 308 300 325 332 322 318 309 285 270 260 222 243 229 238 270 249 255 269 230 244 279 264 226 214 173 214 212 242 235 240 237 245 335 14 345 352 4 4 5 15 17 21 23 20 21 19 10 19 11 11 358 351
324 304 60 358 343 327 318 308 283 222 242 248 236 257 255 258 262 231 219 245 256 212 214 247 260 239 200 203 173 214 234 228 240 227 287 327 347 342 358 13 12 16 19 41 16 7 35 31 24 16 28 16 352 355
309 240 360 334 326 314 298 271 241 214 238 234 240 239 267 282 271 295 299 253 235 216 236 241 237 252 73 244 173 186 224 217 240 238 235 305 310 346 336 13 16 14 24 54 44 9 6 19 36 38 29 17 15 13
289 321 343 325 326 306 270 206 251 237 235 238 249 258 257 244 261 269 265 238 242 228 242 247 250 223 214 181 225 213 213 231 251 301 277 198 304 292 329 5 9 23 24 15 22 76 42 27 16 15 27 25 26 25
319 313 306 304 311 306 275 227 236 257 238 257 260 260 270 275 267 265 266 266 225 238 263 226 236 246 240 236 235 261 205 206 217 180 191 188 179 252 297 316 345 9 360 26 40 16 93 60 44 17 21 19 26 28
298 295 283 289 242 253 258 247 217 257 264 272 290 271 266 266 254 245 231 229 232 219 231 239 241 255 270 278 230 237 277 161 210 225 208 198 183 191 214 314 360 317 334 352 34 57 355 70 56 33 29 31 29 30
297 13 308 247 223 223 279 276 241 253 273 271 281 284 279 269 248 236 241 231 231 219 239 240 249 257 273 272 273 271 204 238 211 254 258 162 233 184 205 226 259 310 325 44 13 41 42 21 46 7 42 36 36 37
284 286 295 276 248 218 246 237 249 306 290 270 279 279 268 268 269 266 255 236 232 228 234 252 258 261 248 242 239 239 241 221 227 124 135 170 245 85 266 271 328 327 336 -0 9 61 58 46 357 45 27 33 26 57
269 239 210 240 237 236 258 229 250 231 244 266 232 256 262 242 255 256 258 258 241 235 240 243 269 281 268 273 238 221 208 230 207 227 161 225 171 210 270 275 342 350 337 3 357 31 72 29 72 45 55 24 20 30
264 242 217 229 213 260 254 221 229 256 271 250 265 272 264 269 266 227 255 244 244 252 229 235 245 251 240 237 252 222 188 224 227 190 183 209 183 153 222 354 29 27 10 320 47 45 50 81 29 29 58 55 30 43
258 225 226 229 215 231 244 240 234 238 258 265 263 261 277 322 273 243 248 254 241 221 66 319 281 270 256 242 223 232 226 211 212 177 224 184 156 211 188 180 140 71 336 320 59 75 50 64 39 32 49 50 36 54
238 233 208 221 224 232 244 260 251 243 248 247 244 249 251 250 229 248 253 230 110 74 47 318 328 315 294 281 180 256 122 236 172 241 171 217 172 207 159 202 167 110 30 14 30 91 99 67 51 26 53 70 53 40
240 249 237 240 259 263 269 275 280 283 274 255 256 225 234 240 240 195 129 157 100 89 2 360 4 325 318 302 290 241 156 234 215 191 91 254 129 123 168 154 110 89 89 58 55 28 59 52 44 43 66 73 61 47
222 256 260 262 253 250 263 271 271 266 267 275 265 231 226 259 11 22 69 97 86 278 338 331 322 349 327 311 289 252 205 173 118 141 148 125 116 141 121 103 87 47 64 36 359 58 35 26 66 53 57 66 77 71
236 247 254 263 266 264 258 252 262 266 267 271 274 296 328 263 273 290 322 43 299 316 342 344 343 332 300 277 282 299 182 157 164 169 176 168 164 169 148 132 160 161 111 102 55 39 35 28 24 55 65 69 94 93
244 240 249 255 258 261 263 269 268 262 275 289 310 304 293 271 49 27 360 354 342 338 333 313 300 293 285 297 282 87 360 291 182 192 196 198 184 166 165 167 174 174 163 169 152 133 128 194 158 142 85 72 79 95
256 262 255 248 248 255 255 253 252 260 267 276 279 278 275 294 98 42 27 351 337 338 343 335 336 337 305 352 359 257 141 77 49 8 342 136 132 168 155 162 171 151 137 172 187 175 163 138 76 76 81 96 86 67
244 237 246 250 249 243 255 258 257 262 256 250 255 284 285 267 240 48 9 356 17 16 12 3 5 2 359 27 44 359 65 86 57 33 49 71 73 77 114 151 156 150 148 172 188 136 133 97 134 118 85 75 79 79
245 251 244 258 262 262 249 230 262 267 257 248 253 240 226 20 71 42 53 19 7 356 13 15 17 19 17 16 53 60 59 66 55 44 50 52 42 15 264 77 82 99 115 98 103 116 129 147 144 120 101 92 84 78